Lexington, KY

12:54 PM EDT on May 26, 2018 (GMT -0400)
Blue Grass

Weather History for KLEX - November, 2013

Change the Weather History Date:

Thursday, November 28, 2013

  Actual Average Record
Temperature  
Mean Temperature 26 °F 41 °F  
Max Temperature 37 °F 50 °F 71 °F (2005)
Min Temperature 15 °F 33 °F 6 °F (1887)
Degree Days  
Heating Degree Days 39 24  
Month to date heating degree days 587 513  
Since 1 July heating degree days 872 839  
Cooling Degree Days 0 0  
Month to date cooling degree days 0 0  
Year to date cooling degree days 1245 1188  
Moisture  
Dew Point 17 °F    
Average Humidity 68    
Maximum Humidity 80    
Minimum Humidity 56    
Precipitation  
Precipitation 0.00 in 0.12 in 1.94 in (2011)
Month to date precipitation 2.45 3.27  
Year to date precipitation 53.95 40.98  
Snow  
Snow 0.00 in 0.10 in 3.40 in (1958)
Month to date snowfall 1.4 0.3  
Since 1 July snowfall 1.4 0.3  
Since 1 September snowfall 1.4 0.3  
Snow Depth T in    
Sea Level Pressure  
Sea Level Pressure 30.41 in    
Wind  
Wind Speed 7 mph (SSW)    
Max Wind Speed 18 mph    
Max Gust Speed 23 mph    
Visibility 10 miles    
Events      
T = Trace of Precipitation, MM = Missing Value Source: NWS Daily Summary

Daily Weather History Graph

Daily Weather History Graph

Search for Another Location

Airport or City:

Astronomy

Nov. 28, 2013 Rise Set
Actual Time 7:33 AM EST 5:19 PM EST
Civil Twilight 7:04 AM EST 5:48 PM EST
Nautical Twilight 6:31 AM EST 6:21 PM EST
Astronomical Twilight 5:59 AM EST 6:52 PM EST
Moon 2:39 AM EST (11/28) 2:25 PM EST (11/28)
Length of Visible Light 10h 44m
Length of Day
9h 46m
Waning Crescent, 22% of the Moon is Illuminated
Nov 28
Waning Crescent
Dec 2
New
Dec 9
First Quarter
Dec 17
Full
Dec 25
Last Quarter

Hourly Weather History & Observations

Time (EST) Temp. Windchill Dew Point Humidity Pressure Visibility Wind Dir Wind Speed Gust Speed Precip Events Conditions
12:54 AM 19.9 °F 14.9 °F 12.9 °F 74% 30.35 in 10.0 mi WSW 3.5 mph - N/A   Clear
1:54 AM 19.0 °F 12.3 °F 12.9 °F 77% 30.34 in 10.0 mi WSW 4.6 mph - N/A   Clear
2:54 AM 18.0 °F 12.7 °F 12.0 °F 78% 30.36 in 10.0 mi SSW 3.5 mph - N/A   Clear
3:54 AM 17.1 °F 10.0 °F 12.0 °F 81% 30.38 in 10.0 mi SSE 4.6 mph - N/A   Clear
4:54 AM 17.1 °F 11.7 °F 12.0 °F 81% 30.39 in 10.0 mi South 3.5 mph - N/A   Clear
5:54 AM 17.1 °F 11.7 °F 12.0 °F 81% 30.42 in 10.0 mi South 3.5 mph - N/A   Clear
6:54 AM 17.1 °F 8.7 °F 12.9 °F 84% 30.44 in 10.0 mi South 5.8 mph - N/A   Clear
7:54 AM 19.0 °F 12.3 °F 12.9 °F 77% 30.46 in 10.0 mi SSW 4.6 mph - N/A   Clear
8:54 AM 21.0 °F 13.4 °F 14.0 °F 74% 30.47 in 10.0 mi SSW 5.8 mph - N/A   Clear
9:54 AM 24.1 °F 13.7 °F 15.1 °F 69% 30.47 in 10.0 mi SSW 10.4 mph - N/A   Clear
10:54 AM 27.0 °F 16.1 °F 17.1 °F 66% 30.46 in 10.0 mi South 12.7 mph - N/A   Clear
11:54 AM 28.9 °F 18.2 °F 19.0 °F 67% 30.43 in 10.0 mi South 13.8 mph - N/A   Clear
12:54 PM 30.9 °F 21.7 °F 19.9 °F 64% 30.40 in 10.0 mi SW 11.5 mph - N/A   Clear
1:54 PM 33.1 °F 23.0 °F 19.9 °F 59% 30.35 in 10.0 mi South 15.0 mph - N/A   Clear
2:54 PM 35.1 °F 25.9 °F 21.0 °F 57% 30.34 in 10.0 mi South 13.8 mph - N/A   Clear
3:54 PM 36.0 °F 26.7 °F 21.0 °F 55% 30.34 in 10.0 mi South 15.0 mph - N/A   Clear
4:54 PM 36.0 °F 29.6 °F 21.9 °F 57% 30.36 in 10.0 mi SW 8.1 mph - N/A   Clear
5:54 PM 32.0 °F 25.6 °F 21.0 °F 64% 30.38 in 10.0 mi SSW 6.9 mph - N/A   Clear
6:54 PM 32.0 °F 28.7 °F 19.9 °F 61% 30.40 in 10.0 mi West 3.5 mph - N/A   Clear
7:54 PM 32.0 °F 28.7 °F 19.0 °F 59% 30.43 in 10.0 mi West 3.5 mph - N/A   Clear
8:54 PM 30.0 °F 24.1 °F 18.0 °F 61% 30.45 in 10.0 mi WSW 5.8 mph - N/A   Clear
9:54 PM 30.0 °F 25.2 °F 18.0 °F 61% 30.47 in 10.0 mi SW 4.6 mph - N/A   Clear
10:54 PM 28.9 °F 23.9 °F 17.1 °F 61% 30.48 in 10.0 mi SSW 4.6 mph - N/A   Clear
11:54 PM 27.0 °F 21.6 °F 17.1 °F 66% 30.49 in 10.0 mi South 4.6 mph - N/A   Clear